TOPSWRTT 000
TTAA00 KICT 250503

Wichita AWIPS Roundup
National Weather Service Wichita KS
1200 AM CDT FRI APR 25 2014

....Central Kansas....
  
CITY           SKY/WX    TMP DP  RH WIND       PRES   REMARKS
RUSSELL        CLEAR     46  34  62 S13       29.87S                  
SALINA         CLEAR     47  39  74 S8        29.88S                  
GREAT BEND     CLEAR     45  34  65 SW7       29.90S                  
ELLSWORTH      CLEAR     46  36  66 CALM      29.88S                  
MCPHERSON      CLEAR     46  37  71 S8        29.90S                  
HAYS           CLEAR     48  32  53 SW5       29.88F                  

....South Central Kansas....
  
CITY           SKY/WX    TMP DP  RH WIND       PRES   REMARKS
HUTCHINSON     CLEAR     43  36  76 CALM      29.90S                  
NEWTON         CLEAR     48  34  57 S8        29.93S                  
KINGMAN        CLEAR     50  39  66 S5        29.91S                  
WICHITA (ICT)  PTCLDY    48  37  66 S9        29.91S                  
JABARA ARPT    CLEAR     51  38  60 S8        29.91S                  
MCCONNELL AFB  NOT AVBL                                               
HARPER           N/A     52  37  58 CALM      29.95S                  
WELLINGTON     CLEAR     52  37  58 SE5       29.93S                  
WINFIELD       CLEAR     50  38  63 S3        29.94S                  
 
....Southeast Kansas....
  
CITY           SKY/WX    TMP DP  RH WIND       PRES   REMARKS
EUREKA         CLEAR     48  39  71 CALM      29.91S                  
CHANUTE        CLEAR     47  41  80 SW3       29.91S                  
PARSONS        CLEAR     44  41  89 CALM      29.92S                  
COFFEYVILLE    CLEAR     48  42  80 CALM      29.92S                  
INDEPENDENCE   NOT AVBL                                               
FORT SCOTT     CLEAR     48  45  87 SW6       29.88S                  
PITTSBURG        N/A     51  49  95 CALM      29.90S                  

....Western Kansas....
  
CITY           SKY/WX    TMP DP  RH WIND       PRES   REMARKS
GOODLAND       PTCLDY    51  17  26 S8        29.91S                  
HILL CITY      CLEAR     46  36  68 W5        29.88F                  
LIBERAL        CLEAR     52  21  30 SE9       29.93F                  
GARDEN CITY    CLEAR     49  23  36 SE9       29.92F                  
DODGE CITY     CLEAR     48  32  53 S8        29.94R                  
PRATT          CLEAR     45  32  61 SW6       29.93S                  
MEDICINE LODGE   N/A     49  37  63 CALM      29.92S                  

....Northeast Kansas....
  
CITY           SKY/WX    TMP DP  RH WIND       PRES   REMARKS
CONCORDIA      CLEAR     55  33  43 S12       29.85F                  
TOPEKA         CLEAR     47  45  93 CALM      29.87S                  
MANHATTAN      CLEAR     42  41  96 CALM      29.87S                  
LAWRENCE       CLEAR     43  42  97 CALM      29.87R                  
OLATHE         CLEAR     50  43  77 W5        29.86R                  
EMPORIA        CLEAR     47  40  76 SW10      29.89S                  

....Oklahoma....
  
CITY           SKY/WX    TMP DP  RH WIND       PRES   REMARKS
GAGE           CLEAR     48  29  47 SE5       29.94F                  
PONCA CITY     CLEAR     50  38  63 CALM      29.93S                  
BARTLESVILLE   CLEAR     43  40  89 CALM      29.94S                  
TULSA          PTCLDY    51  44  77 CALM      29.93S                  
OKLAHOMA CITY  PTCLDY    54  39  57 SE6       29.96S                  

Note: "fair" indicates few or no clouds below 12,000 feet with no
significant weather and/or obstructions to visibility.
  

USA.gov is the U.S. government's official web portal to all federal, state and local government web resources and services.